Weather History for KCFV - July, 2013

Change the Weather History Date:

Wednesday, July 10, 2013

  Actual Average Record
Temperature  
Mean Temperature 91 °F -  
Max Temperature 102 °F 88 °F 109 °F (2011)
Min Temperature 80 °F 67 °F 60 °F (1996)
Cooling Degree Days 26    
Growing Degree Days 41 (Base 50)    
Moisture  
Dew Point 68 °F    
Average Humidity 51    
Maximum Humidity 74    
Minimum Humidity 27    
Precipitation  
Precipitation 0.00 in - - ()
Sea Level Pressure  
Sea Level Pressure 29.94 in    
Wind  
Wind Speed 6 mph (ENE)    
Max Wind Speed 14 mph    
Max Gust Speed -    
Visibility 10 miles    
Events      
Averages and records for this station are not official NWS values.
T = Trace of Precipitation, MM = Missing Value Source: NWS Daily Summary

Daily Weather History Graph

Daily Weather History Graph

Search for Another Location

Airport or City:

Trip Planner

Search our weather history database for the weather conditions in past years. The results will help you decide how hot, cold, wet, or windy it might be!

Date:

Astronomy

Jul. 10, 2013 Rise Set
Actual Time 6:11 AM CDT 8:44 PM CDT
Civil Twilight 5:40 AM CDT 9:14 PM CDT
Nautical Twilight 5:03 AM CDT 9:51 PM CDT
Astronomical Twilight 4:21 AM CDT 10:33 PM CDT
Moon 8:28 AM CDT (7/10) 9:59 PM CDT (7/10)
Length of Visible Light 15h 33m
Length of Day
14h 32m
Waxing Crescent, 5% of the Moon is Illuminated
Jul 10
Waxing Crescent
Jul 15
First Quarter
Jul 22
Full
Jul 29
Last Quarter
Aug 6
New

Hourly Weather History & Observations

Time (CDT) Temp. Heat Index Dew Point Humidity Pressure Visibility Wind Dir Wind Speed Gust Speed Precip Events Conditions
12:52 AM 87.1 °F 92.0 °F 70.0 °F 57% 29.94 in 10.0 mi South 9.2 mph - N/A   Clear
1:52 AM 87.1 °F 92.0 °F 70.0 °F 57% 29.98 in 10.0 mi NW 9.2 mph - N/A   Overcast
2:52 AM 84.9 °F 89.4 °F 70.0 °F 61% 29.95 in 10.0 mi Calm Calm - N/A   Clear
3:52 AM 81.0 °F 84.4 °F 70.0 °F 69% 29.95 in 10.0 mi South 3.5 mph - N/A   Clear
4:52 AM 82.0 °F 85.9 °F 70.0 °F 67% 29.94 in 10.0 mi South 3.5 mph - N/A   Clear
5:52 AM 81.0 °F 84.4 °F 70.0 °F 69% 29.96 in 10.0 mi ENE 6.9 mph - N/A   Partly Cloudy
6:52 AM 80.1 °F 83.6 °F 71.1 °F 74% 29.96 in 10.0 mi Calm Calm - N/A   Clear
7:52 AM 82.0 °F 85.9 °F 70.0 °F 67% 29.93 in 10.0 mi SSE 9.2 mph - N/A   Clear
8:52 AM 82.9 °F 87.0 °F 70.0 °F 65% 29.95 in 10.0 mi South 8.1 mph - N/A   Clear
9:52 AM 89.1 °F 93.7 °F 69.1 °F 52% 29.95 in 10.0 mi South 10.4 mph - N/A   Clear
10:52 AM 91.9 °F 95.4 °F 66.9 °F 44% 29.97 in 10.0 mi WNW 3.5 mph - N/A   Clear
11:52 AM 95.0 °F 97.9 °F 66.0 °F 38% 29.96 in 9.0 mi ESE 3.5 mph - N/A   Clear
12:52 PM 97.0 °F 101.0 °F 66.9 °F 37% 29.96 in 10.0 mi NW 5.8 mph - N/A   Clear
1:52 PM 98.1 °F 102.4 °F 66.9 °F 36% 29.95 in 10.0 mi North 4.6 mph - N/A   Clear
2:52 PM 100.0 °F 104.2 °F 66.0 °F 33% 29.93 in 10.0 mi Calm Calm - N/A   Clear
3:52 PM 100.9 °F 105.3 °F 66.0 °F 32% 29.91 in 10.0 mi ESE 6.9 mph - N/A   Clear
4:52 PM 102.9 °F 105.5 °F 63.0 °F 27% 29.90 in 10.0 mi Variable 5.8 mph - N/A   Clear
5:52 PM 100.9 °F 105.3 °F 66.0 °F 32% 29.88 in 10.0 mi North 8.1 mph - N/A   Partly Cloudy
6:52 PM 100.0 °F 103.6 °F 64.9 °F 32% 29.87 in 10.0 mi North 6.9 mph - N/A   Clear
7:52 PM 98.1 °F 101.8 °F 66.0 °F 35% 29.88 in 10.0 mi NE 5.8 mph - N/A   Partly Cloudy
8:52 PM 91.9 °F 95.4 °F 66.9 °F 44% 29.90 in 10.0 mi ENE 5.8 mph - N/A   Clear
9:52 PM 89.1 °F 97.0 °F 73.0 °F 59% 29.93 in 10.0 mi ENE 8.1 mph - N/A   Clear
10:52 PM 87.1 °F 95.4 °F 73.9 °F 65% 29.95 in 10.0 mi ENE 11.5 mph - N/A   Mostly Cloudy
11:52 PM 86.0 °F 91.5 °F 71.1 °F 61% 29.95 in 10.0 mi ENE 13.8 mph - N/A   Clear